Tracking 19146 objects as of 24-Apr-2018
HD Live streaming from Space Station
objects crossing your sky now

FENGYUN 1C DEB

Track FENGYUN 1C DEB now!
10-day predictions


NORAD ID: 30121
Int'l Code: 1999-025SA
Perigee: 815.3 km
Apogee: 881.8 km
Inclination: 102.2 °
Period: 101.7 minutes
Semi major axis: 7219 km
RCS: 0.0933 m2 (small)
Launch date: May 10, 1999
Source: People's Republic of China (PRC)
Launch site: Taiyaun Space Center, China (TSC)

Note: This is SATELLITE DEBRIS
aabbcc
Your satellite tracking list
Your tracking list is empty




NASA's NSSDC Master Catalog

Two Line Element Set (TLE):
1 30121U 99025SA  18113.61651677 +.00000889 +00000-0 +48987-3 0  9999
2 30121 102.1768 134.6319 0046040 042.2596 079.1212 14.15257582579028
Source of the keplerian elements: AFSPC